,,PA_Meas_PMT16A,,PR_Meas_QMR101_102,,RH_Meas_QMH101,,SR_Meas_QMS101,,TA_Meas_QMH101,,GenWind,,GenWind,
time,status,PA,status,PR,status,RH,status,SR,status,TA,status,DirAvg,status,SpdAvg,
2012-06-06, 00:00:04,VALID,916.132,VALID,0,VALID,97.5187,VALID,0,VALID,19.4868,VALID,9,VALID,1.00703,
2012-06-06, 00:01:04,VALID,916.141,VALID,0,VALID,97.5264,VALID,0,VALID,19.5273,VALID,10,VALID,0.695703,
2012-06-06, 00:02:04,VALID,916.142,VALID,0,VALID,97.5264,VALID,0,VALID,19.4688,VALID,13,VALID,1.32187,
2012-06-06, 00:03:04,VALID,916.084,VALID,0,VALID,97.5264,VALID,0.107441,VALID,19.5063,VALID,17,VALID,1.21875,
2012-06-06, 00:04:04,VALID,916.076,VALID,0,VALID,97.534,VALID,0.107441,VALID,19.5078,VALID,19,VALID,1.38984,
2012-06-06, 00:05:04,VALID,916.074,VALID,0,VALID,97.5187,VALID,0,VALID,19.5078,VALID,2,VALID,1.65156,
2012-06-06, 00:06:04,VALID,916.029,VALID,0,VALID,97.5187,VALID,0,VALID,19.4883,VALID,7,VALID,0.873047,
2012-06-06, 00:07:04,VALID,916.036,VALID,0,VALID,97.5187,VALID,0,VALID,19.4283,VALID,356,VALID,0.793359,
2012-06-06, 00:08:04,VALID,916.028,VALID,0,VALID,97.5416,VALID,0,VALID,19.4868,VALID,33,VALID,0.929688,
2012-06-06, 00:09:04,VALID,916.052,VALID,0,VALID,97.534,VALID,0,VALID,19.5078,VALID,13,VALID,0.641016,
2012-06-06, 00:10:04,VALID,916.024,VALID,0,VALID,97.5416,VALID,0,VALID,19.5063,VALID,13,VALID,0.137891,
2012-06-06, 00:11:04,VALID,916.005,VALID,0,VALID,97.5492,VALID,0,VALID,19.4478,VALID,13,VALID,0.309766,
2012-06-06, 00:12:04,VALID,915.981,VALID,0,VALID,97.5264,VALID,0,VALID,19.5468,VALID,14,VALID,0.117969,
2012-06-06, 00:13:04,VALID,915.975,VALID,0,VALID,97.5264,VALID,0,VALID,19.4883,VALID,13,VALID,0.304297,
2012-06-06, 00:14:04,VALID,916.01,VALID,0,VALID,97.534,VALID,0,VALID,19.4868,VALID,13,VALID,0.00195313,
2012-06-06, 00:15:04,VALID,915.914,VALID,0,VALID,97.5492,VALID,0,VALID,19.4883,VALID,13,VALID,0.399219,
2012-06-06, 00:16:04,VALID,915.908,VALID,0,VALID,97.5416,VALID,0,VALID,19.4688,VALID,13,VALID,0.524609,
2012-06-06, 00:17:04,VALID,915.897,VALID,0,VALID,97.5416,VALID,0,VALID,19.5063,VALID,315,VALID,1.17969,
2012-06-06, 00:18:04,VALID,915.923,VALID,0,VALID,97.5416,VALID,0,VALID,19.5453,VALID,357,VALID,1.20234,
2012-06-06, 00:19:04,VALID,915.929,VALID,0,VALID,97.5416,VALID,0,VALID,19.4283,VALID,7,VALID,1.11055,
2012-06-06, 00:20:04,VALID,915.931,VALID,0,VALID,97.5569,VALID,0,VALID,19.5063,VALID,24,VALID,1.43516,
2012-06-06, 00:21:04,VALID,915.922,VALID,0,VALID,97.534,VALID,0,VALID,19.4883,VALID,9,VALID,1.71641,
2012-06-06, 00:22:04,VALID,915.902,VALID,0,VALID,97.5492,VALID,0,VALID,19.4868,VALID,9,VALID,1.33086,
2012-06-06, 00:23:04,VALID,915.914,VALID,0,VALID,97.5569,VALID,0,VALID,19.4868,VALID,11,VALID,1.46445,
2012-06-06, 00:24:04,VALID,915.909,VALID,0,VALID,97.534,VALID,0,VALID,19.5078,VALID,7,VALID,1.04766,
2012-06-06, 00:25:04,VALID,915.91,VALID,0,VALID,97.5187,VALID,0,VALID,19.5273,VALID,14,VALID,1.03711,
2012-06-06, 00:26:04,VALID,915.882,VALID,0,VALID,97.534,VALID,0.107441,VALID,19.5468,VALID,22,VALID,1.70273,
2012-06-06, 00:27:04,VALID,915.848,VALID,0,VALID,97.534,VALID,0,VALID,19.5453,VALID,18,VALID,1.50586,
2012-06-06, 00:28:04,VALID,915.846,VALID,0,VALID,97.5264,VALID,0,VALID,19.5258,VALID,19,VALID,1.22734,
2012-06-06, 00:29:04,VALID,915.828,VALID,0,VALID,97.5416,VALID,0.107441,VALID,19.5858,VALID,25,VALID,0.213672,
2012-06-06, 00:30:04,VALID,915.828,VALID,0,VALID,97.534,VALID,0.107441,VALID,19.5453,VALID,25,VALID,0.370313,
2012-06-06, 00:31:04,VALID,915.853,VALID,0,VALID,97.5111,VALID,0,VALID,19.5648,VALID,25,VALID,0.272656,
2012-06-06, 00:32:04,VALID,915.835,VALID,0,VALID,97.5264,VALID,0,VALID,19.5273,VALID,25,VALID,0.00546875,
2012-06-06, 00:33:04,VALID,915.848,VALID,0,VALID,97.5416,VALID,0,VALID,19.5648,VALID,25,VALID,0.510938,
2012-06-06, 00:34:04,VALID,915.817,VALID,0,VALID,97.5416,VALID,0,VALID,19.5453,VALID,24,VALID,1.72969,
2012-06-06, 00:35:04,VALID,915.797,VALID,0,VALID,97.5492,VALID,0.107441,VALID,19.5648,VALID,29,VALID,0.949609,
2012-06-06, 00:36:04,VALID,915.863,VALID,0,VALID,97.5645,VALID,0.107441,VALID,19.6053,VALID,6,VALID,0.313281,
2012-06-06, 00:37:04,VALID,915.791,VALID,0,VALID,97.5492,VALID,0.107441,VALID,19.6053,VALID,18,VALID,1.04453,
2012-06-06, 00:38:04,VALID,915.825,VALID,0,VALID,97.5492,VALID,0.107441,VALID,19.6053,VALID,23,VALID,0.0746094,
2012-06-06, 00:39:04,VALID,915.826,VALID,0,VALID,97.5416,VALID,0,VALID,19.6443,VALID,23,VALID,0.432031,
2012-06-06, 00:40:04,VALID,915.801,VALID,0,VALID,97.534,VALID,0,VALID,19.6248,VALID,23,VALID,0.620313,
2012-06-06, 00:41:04,VALID,915.759,VALID,0,VALID,97.5492,VALID,0,VALID,19.6443,VALID,23,VALID,0.942187,
2012-06-06, 00:42:04,VALID,915.723,VALID,0,VALID,97.534,VALID,0,VALID,19.6248,VALID,43,VALID,0.770703,
2012-06-06, 00:43:04,VALID,915.775,VALID,0,VALID,97.534,VALID,0,VALID,19.6623,VALID,25,VALID,0.857813,
2012-06-06, 00:44:04,VALID,915.779,VALID,0,VALID,97.5492,VALID,0,VALID,19.6038,VALID,19,VALID,0.144531,
2012-06-06, 00:45:04,VALID,915.782,VALID,0,VALID,97.534,VALID,0,VALID,19.6428,VALID,43,VALID,1.04727,
2012-06-06, 00:46:04,VALID,915.832,VALID,0.2,VALID,97.5264,VALID,0,VALID,19.6623,VALID,47,VALID,0.267188,
2012-06-06, 00:47:04,VALID,915.851,VALID,0,VALID,97.5264,VALID,0,VALID,19.6428,VALID,47,VALID,0.458984,
2012-06-06, 00:48:04,VALID,915.812,VALID,0,VALID,97.5492,VALID,0,VALID,19.6833,VALID,47,VALID,0.347266,
2012-06-06, 00:49:04,VALID,915.81,VALID,0.2,VALID,97.5569,VALID,0,VALID,19.6623,VALID,47,VALID,0.305469,
2012-06-06, 00:50:04,VALID,915.77,VALID,0,VALID,97.5492,VALID,0,VALID,19.7223,VALID,240,VALID,0.688281,
2012-06-06, 00:51:04,VALID,915.803,VALID,0,VALID,97.5187,VALID,0,VALID,19.6818,VALID,358,VALID,0.960156,
2012-06-06, 00:52:04,VALID,915.796,VALID,0,VALID,97.5264,VALID,0,VALID,19.6818,VALID,20,VALID,0.835547,
2012-06-06, 00:53:04,VALID,915.747,VALID,0,VALID,97.5035,VALID,0.107441,VALID,19.6833,VALID,94,VALID,0.907812,
2012-06-06, 00:54:04,VALID,915.77,VALID,0,VALID,97.5264,VALID,0,VALID,19.7223,VALID,177,VALID,0.323828,
2012-06-06, 00:55:04,VALID,915.749,VALID,0,VALID,97.534,VALID,0,VALID,19.7013,VALID,32,VALID,0.741797,
2012-06-06, 00:56:04,VALID,915.714,VALID,0.2,VALID,97.534,VALID,0,VALID,19.6623,VALID,29,VALID,1.90078,
2012-06-06, 00:57:04,VALID,915.75,VALID,0,VALID,97.5264,VALID,0.107441,VALID,19.6623,VALID,13,VALID,2.16992,
2012-06-06, 00:58:04,VALID,915.758,VALID,0,VALID,97.534,VALID,0,VALID,19.6623,VALID,6,VALID,1.64297,
2012-06-06, 00:59:04,VALID,915.757,VALID,0,VALID,97.5492,VALID,0,VALID,19.7613,VALID,358,VALID,0.367969,
2012-06-06, 01:00:04,VALID,915.759,VALID,0,VALID,97.5264,VALID,0,VALID,19.7013,VALID,17,VALID,0.403906,
2012-06-06, 01:01:04,VALID,915.748,VALID,0,VALID,97.5264,VALID,0,VALID,19.6818,VALID,16,VALID,0.558984,
2012-06-06, 01:02:04,VALID,915.792,VALID,0,VALID,97.534,VALID,0,VALID,19.7013,VALID,15,VALID,0.622266,
2012-06-06, 01:03:04,VALID,915.75,VALID,0,VALID,97.4959,VALID,0,VALID,19.7403,VALID,20,VALID,1.52852,
2012-06-06, 01:04:04,VALID,915.792,VALID,0.2,VALID,97.5187,VALID,0,VALID,19.7418,VALID,10,VALID,1.1918,
2012-06-06, 01:05:04,VALID,915.776,VALID,0,VALID,97.5187,VALID,0,VALID,19.7223,VALID,26,VALID,1.0293,
2012-06-06, 01:06:04,VALID,915.774,VALID,0,VALID,97.5035,VALID,0,VALID,19.7013,VALID,16,VALID,1.52383,
2012-06-06, 01:07:04,VALID,915.775,VALID,0,VALID,97.5187,VALID,0,VALID,19.6818,VALID,47,VALID,1.30703,
2012-06-06, 01:08:04,VALID,915.795,VALID,0,VALID,97.5187,VALID,0,VALID,19.7208,VALID,233,VALID,0.602734,
2012-06-06, 01:09:04,VALID,915.816,VALID,0,VALID,97.5187,VALID,0.107441,VALID,19.7013,VALID,203,VALID,1.27461,
2012-06-06, 01:10:04,VALID,915.829,VALID,0,VALID,97.5416,VALID,0,VALID,19.7013,VALID,22,VALID,2.35391,
2012-06-06, 01:11:04,VALID,915.844,VALID,0,VALID,97.5111,VALID,0.107441,VALID,19.7013,VALID,8,VALID,0.888672,
2012-06-06, 01:12:04,VALID,915.827,VALID,0,VALID,97.5416,VALID,0.107441,VALID,19.7403,VALID,40,VALID,1.52813,
2012-06-06, 01:13:04,VALID,915.85,VALID,0,VALID,97.5035,VALID,0.107441,VALID,19.7208,VALID,38,VALID,1.03398,
2012-06-06, 01:14:04,VALID,915.873,VALID,0,VALID,97.5111,VALID,0,VALID,19.7028,VALID,38,VALID,0.6625,
2012-06-06, 01:15:04,VALID,915.858,VALID,0,VALID,97.5187,VALID,0,VALID,19.7403,VALID,37,VALID,1.74297,
2012-06-06, 01:16:04,VALID,915.913,VALID,0,VALID,97.5111,VALID,0,VALID,19.7013,VALID,18,VALID,0.78125,
2012-06-06, 01:17:04,VALID,915.894,VALID,0,VALID,97.5035,VALID,0,VALID,19.7223,VALID,46,VALID,0.253516,
2012-06-06, 01:18:04,VALID,915.855,VALID,0,VALID,97.5264,VALID,0,VALID,19.7013,VALID,46,VALID,0.686328,
2012-06-06, 01:19:04,VALID,915.841,VALID,0,VALID,97.5264,VALID,0,VALID,19.7223,VALID,28,VALID,1.94531,
2012-06-06, 01:20:04,VALID,915.846,VALID,0,VALID,97.5035,VALID,0,VALID,19.7223,VALID,14,VALID,1.90273,
2012-06-06, 01:21:04,VALID,915.844,VALID,0,VALID,97.5187,VALID,0,VALID,19.6638,VALID,25,VALID,1.97383,
2012-06-06, 01:22:04,VALID,915.823,VALID,0,VALID,97.5111,VALID,0,VALID,19.6623,VALID,17,VALID,1.4457,
2012-06-06, 01:23:04,VALID,915.827,VALID,0,VALID,97.5187,VALID,0,VALID,19.6818,VALID,54,VALID,0.759375,
2012-06-06, 01:24:04,VALID,915.803,VALID,0,VALID,97.5264,VALID,0,VALID,19.6638,VALID,7,VALID,1.43086,
2012-06-06, 01:25:04,VALID,915.857,VALID,0,VALID,97.5111,VALID,0,VALID,19.6833,VALID,60,VALID,0.692578,
2012-06-06, 01:26:04,VALID,915.818,VALID,0,VALID,97.5187,VALID,0,VALID,19.7028,VALID,46,VALID,1.35781,
2012-06-06, 01:27:04,VALID,915.877,VALID,0,VALID,97.5187,VALID,0,VALID,19.7028,VALID,1,VALID,1.10039,
2012-06-06, 01:28:04,VALID,915.81,VALID,0,VALID,97.4882,VALID,0,VALID,19.7028,VALID,73,VALID,2.10391,
2012-06-06, 01:29:04,VALID,915.747,VALID,0.2,VALID,97.4959,VALID,0,VALID,19.6833,VALID,33,VALID,2.73828,
2012-06-06, 01:30:04,VALID,915.787,VALID,0,VALID,97.4882,VALID,0,VALID,19.6833,VALID,40,VALID,1.50898,
2012-06-06, 01:31:04,VALID,915.75,VALID,0,VALID,97.4959,VALID,0,VALID,19.6833,VALID,349,VALID,1.88477,
2012-06-06, 01:32:04,VALID,915.754,VALID,0,VALID,97.4959,VALID,0,VALID,19.7223,VALID,16,VALID,2.20859,
2012-06-06, 01:33:04,VALID,915.706,VALID,0,VALID,97.4806,VALID,0,VALID,19.7028,VALID,34,VALID,1.89727,
2012-06-06, 01:34:04,VALID,915.62,VALID,0,VALID,97.4882,VALID,0,VALID,19.7028,VALID,27,VALID,1.85625,
2012-06-06, 01:35:04,VALID,915.532,VALID,0,VALID,97.4806,VALID,0,VALID,19.6833,VALID,18,VALID,3.06992,
2012-06-06, 01:36:04,VALID,915.499,VALID,0,VALID,97.5035,VALID,0,VALID,19.7028,VALID,25,VALID,3.29766,
2012-06-06, 01:37:04,VALID,915.473,VALID,0,VALID,97.4882,VALID,0,VALID,19.6833,VALID,22,VALID,2.19766,
2012-06-06, 01:38:04,VALID,915.452,VALID,0,VALID,97.4882,VALID,0,VALID,19.6833,VALID,25,VALID,2.18438,
2012-06-06, 01:39:04,VALID,915.423,VALID,0,VALID,97.5111,VALID,0,VALID,19.7028,VALID,19,VALID,2.325,
2012-06-06, 01:40:04,VALID,915.508,VALID,0,VALID,97.4959,VALID,0,VALID,19.7028,VALID,6,VALID,0.635547,
2012-06-06, 01:41:04,VALID,915.623,VALID,0,VALID,97.4654,VALID,0,VALID,19.7418,VALID,37,VALID,0.678516,
2012-06-06, 01:42:04,VALID,915.521,VALID,0.8,VALID,97.5035,VALID,0,VALID,19.7418,VALID,8,VALID,1.2207,
2012-06-06, 01:43:04,VALID,915.535,VALID,0.2,VALID,97.4806,VALID,0,VALID,19.7613,VALID,222,VALID,0.749609,
2012-06-06, 01:44:04,VALID,915.582,VALID,0.2,VALID,97.4959,VALID,0,VALID,19.7223,VALID,159,VALID,0.919922,
2012-06-06, 01:45:04,VALID,915.547,VALID,0,VALID,97.5035,VALID,0,VALID,19.7013,VALID,50,VALID,0.562891,
2012-06-06, 01:46:04,VALID,915.575,VALID,0,VALID,97.4806,VALID,0,VALID,19.7013,VALID,37,VALID,1.2125,
2012-06-06, 01:47:04,VALID,915.629,VALID,0,VALID,97.473,VALID,0,VALID,19.7028,VALID,198,VALID,1.33047,
2012-06-06, 01:48:04,VALID,915.69,VALID,0.2,VALID,97.4959,VALID,0,VALID,19.7208,VALID,225,VALID,1.20664,
2012-06-06, 01:49:04,VALID,915.665,VALID,0.4,VALID,97.4654,VALID,0,VALID,19.7418,VALID,188,VALID,0.240625,
2012-06-06, 01:50:04,VALID,915.563,VALID,0.2,VALID,97.5035,VALID,0,VALID,19.7013,VALID,275,VALID,2.01563,
2012-06-06, 01:51:04,VALID,915.644,VALID,0.2,VALID,97.5035,VALID,0,VALID,19.7613,VALID,35,VALID,3.03594,
2012-06-06, 01:52:04,VALID,915.656,VALID,0.4,VALID,97.4806,VALID,0,VALID,19.7613,VALID,39,VALID,2.43945,
2012-06-06, 01:53:04,VALID,915.622,VALID,0.2,VALID,97.5035,VALID,0,VALID,19.7223,VALID,1,VALID,1.13828,
2012-06-06, 01:54:04,VALID,915.63,VALID,0,VALID,97.473,VALID,0,VALID,19.7418,VALID,350,VALID,0.423828,
2012-06-06, 01:55:04,VALID,915.596,VALID,0,VALID,97.4806,VALID,0,VALID,19.7223,VALID,7,VALID,0.835156,
2012-06-06, 01:56:04,VALID,915.629,VALID,0,VALID,97.5111,VALID,0,VALID,19.6818,VALID,258,VALID,0.990234,
2012-06-06, 01:57:04,VALID,915.574,VALID,0,VALID,97.5035,VALID,0,VALID,19.6818,VALID,31,VALID,2.40039,
2012-06-06, 01:58:04,VALID,915.574,VALID,0,VALID,97.4959,VALID,0,VALID,19.7028,VALID,83,VALID,0.935547,
2012-06-06, 01:59:04,VALID,915.617,VALID,0,VALID,97.5035,VALID,0,VALID,19.6818,VALID,29,VALID,1.07266,
2012-06-06, 02:00:04,VALID,915.605,VALID,0,VALID,97.5111,VALID,0,VALID,19.6623,VALID,5,VALID,1.15977,
2012-06-06, 02:01:04,VALID,915.571,VALID,0,VALID,97.5035,VALID,0,VALID,19.7043,VALID,332,VALID,0.434375,
2012-06-06, 02:02:04,VALID,915.493,VALID,0,VALID,97.5187,VALID,0,VALID,19.6833,VALID,37,VALID,1.70977,
2012-06-06, 02:03:04,VALID,915.545,VALID,0,VALID,97.5035,VALID,0,VALID,19.6428,VALID,247,VALID,2.68633,
2012-06-06, 02:04:04,VALID,915.553,VALID,0,VALID,97.5187,VALID,0,VALID,19.6638,VALID,66,VALID,0.465625,
2012-06-06, 02:05:04,VALID,915.499,VALID,0,VALID,97.5035,VALID,0,VALID,19.7043,VALID,63,VALID,0.975781,
2012-06-06, 02:06:04,VALID,915.536,VALID,0,VALID,97.5416,VALID,0,VALID,19.6833,VALID,235,VALID,1.65586,
2012-06-06, 02:07:04,VALID,915.477,VALID,0,VALID,97.5035,VALID,0,VALID,19.6623,VALID,252,VALID,3.65039,
2012-06-06, 02:08:04,VALID,915.525,VALID,0,VALID,97.5111,VALID,0,VALID,19.6833,VALID,350,VALID,1.05977,
2012-06-06, 02:09:04,VALID,915.51,VALID,0,VALID,97.5111,VALID,0,VALID,19.6623,VALID,58,VALID,1.56562,
2012-06-06, 02:10:04,VALID,915.54,VALID,0,VALID,97.5111,VALID,0,VALID,19.7028,VALID,49,VALID,0.840625,
2012-06-06, 02:11:04,VALID,915.528,VALID,0,VALID,97.4959,VALID,0,VALID,19.7223,VALID,203,VALID,1.45117,
2012-06-06, 02:12:04,VALID,915.538,VALID,0,VALID,97.534,VALID,0,VALID,19.6623,VALID,186,VALID,1.32656,
2012-06-06, 02:13:04,VALID,915.549,VALID,0,VALID,97.5035,VALID,0,VALID,19.7223,VALID,236,VALID,1.17422,
2012-06-06, 02:14:04,VALID,915.554,VALID,0,VALID,97.534,VALID,0,VALID,19.7028,VALID,251,VALID,0.729297,
2012-06-06, 02:15:04,VALID,915.463,VALID,0,VALID,97.4959,VALID,0,VALID,19.7013,VALID,30,VALID,1.96953,
2012-06-06, 02:16:04,VALID,915.486,VALID,0,VALID,97.5264,VALID,0,VALID,19.6818,VALID,70,VALID,0.994141,
2012-06-06, 02:17:04,VALID,915.51,VALID,0,VALID,97.534,VALID,0,VALID,19.7223,VALID,184,VALID,0.539063,
2012-06-06, 02:18:04,VALID,915.513,VALID,0,VALID,97.5111,VALID,0,VALID,19.7223,VALID,63,VALID,0.606641,
2012-06-06, 02:19:04,VALID,915.419,VALID,0,VALID,97.5187,VALID,0,VALID,19.7223,VALID,38,VALID,1.84063,
2012-06-06, 02:20:04,VALID,915.371,VALID,0,VALID,97.5187,VALID,0,VALID,19.7028,VALID,27,VALID,2.5125,
2012-06-06, 02:21:04,VALID,915.414,VALID,0,VALID,97.5264,VALID,0,VALID,19.7013,VALID,21,VALID,0.588672,
2012-06-06, 02:22:04,VALID,915.411,VALID,0,VALID,97.5492,VALID,0,VALID,19.7013,VALID,269,VALID,0.621094,
2012-06-06, 02:23:04,VALID,915.386,VALID,0,VALID,97.5264,VALID,0,VALID,19.7223,VALID,314,VALID,0.831641,
2012-06-06, 02:24:04,VALID,915.345,VALID,0,VALID,97.534,VALID,0,VALID,19.6818,VALID,37,VALID,2.94961,
2012-06-06, 02:25:04,VALID,915.354,VALID,0,VALID,97.5264,VALID,0,VALID,19.7028,VALID,230,VALID,1.05547,
2012-06-06, 02:26:04,VALID,915.359,VALID,0,VALID,97.5492,VALID,0,VALID,19.6818,VALID,282,VALID,0.59375,
2012-06-06, 02:27:04,VALID,915.34,VALID,0,VALID,97.534,VALID,0,VALID,19.6833,VALID,318,VALID,0.579687,
2012-06-06, 02:28:04,VALID,915.346,VALID,0,VALID,97.5264,VALID,0,VALID,19.7028,VALID,255,VALID,0.978906,
2012-06-06, 02:29:04,VALID,915.301,VALID,0,VALID,97.534,VALID,0,VALID,19.7028,VALID,350,VALID,1.76172,
2012-06-06, 02:30:04,VALID,915.221,VALID,0,VALID,97.5111,VALID,0,VALID,19.7013,VALID,1,VALID,0.841016,
2012-06-06, 02:31:04,VALID,915.232,VALID,0,VALID,97.5569,VALID,0,VALID,19.7223,VALID,264,VALID,0.475391,
2012-06-06, 02:32:04,VALID,915.188,VALID,0,VALID,97.534,VALID,0,VALID,19.7223,VALID,191,VALID,0.309375,
2012-06-06, 02:33:04,VALID,915.207,VALID,0,VALID,97.5416,VALID,0,VALID,19.7028,VALID,255,VALID,1.10703,
2012-06-06, 02:34:04,VALID,915.208,VALID,0,VALID,97.534,VALID,0,VALID,19.7013,VALID,304,VALID,0.219922,
2012-06-06, 02:35:04,VALID,915.132,VALID,0,VALID,97.5187,VALID,0,VALID,19.7208,VALID,304,VALID,0.504297,
2012-06-06, 02:36:04,VALID,915.183,VALID,0,VALID,97.5569,VALID,0,VALID,19.7223,VALID,99,VALID,0.459375,
2012-06-06, 02:37:04,VALID,915.177,VALID,0,VALID,97.5264,VALID,0,VALID,19.7208,VALID,230,VALID,1.00508,
2012-06-06, 02:38:04,VALID,915.198,VALID,0,VALID,97.534,VALID,0,VALID,19.7598,VALID,256,VALID,1.05391,
2012-06-06, 02:39:04,VALID,915.175,VALID,0,VALID,97.5264,VALID,0,VALID,19.7808,VALID,260,VALID,1.15508,
2012-06-06, 02:40:04,VALID,915.191,VALID,0,VALID,97.5492,VALID,0,VALID,19.7403,VALID,255,VALID,0.488281,
2012-06-06, 02:41:04,VALID,915.155,VALID,0,VALID,97.5492,VALID,0,VALID,19.7808,VALID,336,VALID,2.09102,
2012-06-06, 02:42:04,VALID,915.146,VALID,0,VALID,97.5416,VALID,0,VALID,19.8003,VALID,46,VALID,0.647266,
2012-06-06, 02:43:04,VALID,915.19,VALID,0,VALID,97.5416,VALID,0.107441,VALID,19.8003,VALID,253,VALID,1.07734,
2012-06-06, 02:44:04,VALID,915.163,VALID,0,VALID,97.5416,VALID,0,VALID,19.7598,VALID,288,VALID,0.527734,
2012-06-06, 02:45:04,VALID,915.132,VALID,0,VALID,97.5264,VALID,0,VALID,19.8198,VALID,68,VALID,1.13398,
2012-06-06, 02:46:04,VALID,915.159,VALID,0,VALID,97.534,VALID,0,VALID,19.8183,VALID,7,VALID,1.31641,
2012-06-06, 02:47:04,VALID,915.166,VALID,0,VALID,97.5492,VALID,0,VALID,19.8378,VALID,171,VALID,1.18047,
2012-06-06, 02:48:04,VALID,915.138,VALID,0,VALID,97.5187,VALID,0,VALID,19.8588,VALID,20,VALID,0.744141,
2012-06-06, 02:49:04,VALID,915.137,VALID,0,VALID,97.5187,VALID,0,VALID,19.8573,VALID,16,VALID,1.38125,
2012-06-06, 02:50:04,VALID,915.164,VALID,0,VALID,97.5492,VALID,0,VALID,19.8573,VALID,198,VALID,0.511719,
2012-06-06, 02:51:04,VALID,915.083,VALID,0,VALID,97.5264,VALID,0,VALID,19.8978,VALID,337,VALID,1.04922,
2012-06-06, 02:52:04,VALID,915.108,VALID,0,VALID,97.5492,VALID,0,VALID,19.8978,VALID,321,VALID,0.579687,
2012-06-06, 02:53:04,VALID,915.069,VALID,0,VALID,97.5264,VALID,0,VALID,19.8978,VALID,229,VALID,1.01992,
2012-06-06, 02:54:04,VALID,915.055,VALID,0,VALID,97.5569,VALID,0,VALID,19.8978,VALID,85,VALID,0.838672,
2012-06-06, 02:55:04,VALID,915.026,VALID,0,VALID,97.5264,VALID,0,VALID,19.8783,VALID,28,VALID,0.988281,
2012-06-06, 02:56:04,VALID,915.058,VALID,0,VALID,97.5569,VALID,0,VALID,19.9173,VALID,245,VALID,0.786328,
2012-06-06, 02:57:04,VALID,915.037,VALID,0,VALID,97.534,VALID,0,VALID,19.8978,VALID,269,VALID,2.06133,
2012-06-06, 02:58:04,VALID,914.99,VALID,0,VALID,97.5264,VALID,0,VALID,19.8768,VALID,41,VALID,1.67734,
2012-06-06, 02:59:04,VALID,915.033,VALID,0,VALID,97.5187,VALID,0,VALID,19.8978,VALID,274,VALID,0.958203,
2012-06-06, 03:00:04,VALID,914.972,VALID,0,VALID,97.5492,VALID,0,VALID,19.8963,VALID,245,VALID,0.816016,
2012-06-06, 03:01:04,VALID,914.958,VALID,0,VALID,97.5416,VALID,0,VALID,19.9173,VALID,229,VALID,1.66602,
2012-06-06, 03:02:04,VALID,914.88,VALID,0,VALID,97.5569,VALID,0,VALID,19.8768,VALID,219,VALID,0.834375,
2012-06-06, 03:03:04,VALID,914.893,VALID,0,VALID,97.5416,VALID,0,VALID,19.9173,VALID,206,VALID,0.114063,
2012-06-06, 03:04:04,VALID,914.852,VALID,0,VALID,97.5492,VALID,0,VALID,19.9158,VALID,206,VALID,0.294141,
2012-06-06, 03:05:04,VALID,914.784,VALID,0,VALID,97.5492,VALID,0,VALID,19.9158,VALID,28,VALID,2.39609,
2012-06-06, 03:06:04,VALID,914.803,VALID,0,VALID,97.534,VALID,0,VALID,19.9173,VALID,348,VALID,1.13359,
2012-06-06, 03:07:04,VALID,914.788,VALID,0,VALID,97.5264,VALID,0,VALID,19.8963,VALID,334,VALID,0.842969,
2012-06-06, 03:08:04,VALID,914.782,VALID,0,VALID,97.5416,VALID,0,VALID,19.8768,VALID,23,VALID,1.81328,
2012-06-06, 03:09:04,VALID,914.832,VALID,0,VALID,97.5492,VALID,0,VALID,19.9173,VALID,49,VALID,1.46641,
2012-06-06, 03:10:04,VALID,914.807,VALID,0,VALID,97.5492,VALID,0,VALID,19.8573,VALID,34,VALID,2.1707,
2012-06-06, 03:11:04,VALID,914.856,VALID,0,VALID,97.534,VALID,0,VALID,19.8768,VALID,43,VALID,1.1332,
2012-06-06, 03:12:04,VALID,914.847,VALID,0,VALID,97.5492,VALID,0,VALID,19.8573,VALID,26,VALID,1.65742,
2012-06-06, 03:13:04,VALID,914.908,VALID,0,VALID,97.5492,VALID,0,VALID,19.8768,VALID,26,VALID,2.08984,
2012-06-06, 03:14:04,VALID,914.901,VALID,0,VALID,97.5569,VALID,0,VALID,19.8978,VALID,30,VALID,1.44687,
2012-06-06, 03:15:04,VALID,914.885,VALID,0,VALID,97.5645,VALID,0,VALID,19.8783,VALID,42,VALID,2.12891,
2012-06-06, 03:16:04,VALID,914.918,VALID,0,VALID,97.5416,VALID,0,VALID,19.8783,VALID,28,VALID,1.81758,
2012-06-06, 03:17:04,VALID,914.934,VALID,0,VALID,97.5645,VALID,0,VALID,19.8783,VALID,95,VALID,0.453516,
2012-06-06, 03:18:04,VALID,914.924,VALID,0,VALID,97.5873,VALID,0,VALID,19.8183,VALID,54,VALID,1.00117,
2012-06-06, 03:19:04,VALID,914.911,VALID,0,VALID,97.5416,VALID,0,VALID,19.8393,VALID,52,VALID,0.668359,
2012-06-06, 03:20:04,VALID,914.867,VALID,0,VALID,97.5645,VALID,0,VALID,19.8198,VALID,167,VALID,1.14336,
2012-06-06, 03:21:04,VALID,914.843,VALID,0,VALID,97.5721,VALID,0,VALID,19.8003,VALID,24,VALID,1.56914,
2012-06-06, 03:22:04,VALID,914.786,VALID,0,VALID,97.5645,VALID,0,VALID,19.7793,VALID,42,VALID,1.46406,
2012-06-06, 03:23:04,VALID,914.788,VALID,0,VALID,97.5492,VALID,0,VALID,19.7793,VALID,51,VALID,1.97578,
2012-06-06, 03:24:04,VALID,914.683,VALID,0,VALID,97.5645,VALID,0,VALID,19.7808,VALID,31,VALID,2.45195,
2012-06-06, 03:25:04,VALID,914.711,VALID,0,VALID,97.5645,VALID,0,VALID,19.7208,VALID,30,VALID,1.38242,
2012-06-06, 03:26:04,VALID,914.627,VALID,0,VALID,97.5645,VALID,0,VALID,19.7013,VALID,30,VALID,2.43555,
2012-06-06, 03:27:04,VALID,914.719,VALID,0,VALID,97.5569,VALID,0.107441,VALID,19.6818,VALID,351,VALID,1.14922,
2012-06-06, 03:28:04,VALID,914.7,VALID,0,VALID,97.5569,VALID,0,VALID,19.6818,VALID,24,VALID,1.33789,
2012-06-06, 03:29:04,VALID,914.629,VALID,0,VALID,97.5569,VALID,0,VALID,19.6833,VALID,47,VALID,2.03555,
2012-06-06, 03:30:04,VALID,914.65,VALID,0,VALID,97.5645,VALID,0,VALID,19.6233,VALID,23,VALID,2.62109,
2012-06-06, 03:31:04,VALID,914.705,VALID,0,VALID,97.5645,VALID,0,VALID,19.6443,VALID,33,VALID,2.03906,
2012-06-06, 03:32:04,VALID,914.726,VALID,0,VALID,97.5721,VALID,0,VALID,19.6248,VALID,4,VALID,1.09141,
2012-06-06, 03:33:04,VALID,914.747,VALID,0,VALID,97.5569,VALID,0,VALID,19.6053,VALID,6,VALID,1.36484,
2012-06-06, 03:34:04,VALID,914.675,VALID,0,VALID,97.5797,VALID,0,VALID,19.5468,VALID,19,VALID,2.59766,
2012-06-06, 03:35:04,VALID,914.66,VALID,0,VALID,97.5569,VALID,0,VALID,19.5468,VALID,34,VALID,1.66055,
2012-06-06, 03:36:04,VALID,914.634,VALID,0,VALID,97.5797,VALID,0,VALID,19.5273,VALID,292,VALID,0.708203,
2012-06-06, 03:37:04,VALID,914.611,VALID,0,VALID,97.5492,VALID,0,VALID,19.5273,VALID,23,VALID,1.00781,
2012-06-06, 03:38:04,VALID,914.699,VALID,0,VALID,97.595,VALID,0,VALID,19.5078,VALID,172,VALID,0.589453,
2012-06-06, 03:39:04,VALID,914.693,VALID,0,VALID,97.5721,VALID,0,VALID,19.5273,VALID,29,VALID,1.68672,
2012-06-06, 03:40:04,VALID,914.728,VALID,0,VALID,97.5645,VALID,0,VALID,19.4883,VALID,115,VALID,0.669141,
2012-06-06, 03:41:04,VALID,914.74,VALID,0,VALID,97.5797,VALID,0,VALID,19.4688,VALID,330,VALID,2.11914,
2012-06-06, 03:42:04,VALID,914.684,VALID,0,VALID,97.5569,VALID,0,VALID,19.4673,VALID,331,VALID,1.41758,
2012-06-06, 03:43:04,VALID,914.604,VALID,0,VALID,97.5797,VALID,0,VALID,19.4283,VALID,37,VALID,1.19219,
2012-06-06, 03:44:04,VALID,914.697,VALID,0,VALID,97.5569,VALID,0,VALID,19.4283,VALID,54,VALID,2.37891,
2012-06-06, 03:45:04,VALID,914.628,VALID,0,VALID,97.5797,VALID,0,VALID,19.4493,VALID,40,VALID,2.60156,